Regional Weather Roundup
Issued by NWS Little Rock, AR

Home | Current Version | Previous Version | Text Only | Print | Product List | Glossary Off
Versions: 1 2 3 4 5 6 7 8 9 10 11 12 13 14 15 16 17 18 19 20 21 22 23 24 25 26 27 28 29 30 31 32 33 34 35 36 37 38 39 40 41 42 43 44 45 46 47 48 49 50

000
ASUS44 KLZK 012305
RWRLZK

WEATHER ROUNDUP FOR ARKANSAS
NATIONAL WEATHER SERVICE LITTLE ROCK AR
600 PM CDT WED OCT 01 2014

NOTE: "FAIR" INDICATES FEW OR NO CLOUDS BELOW 12,000 FEET WITH NO
SIGNIFICANT WEATHER AND/OR OBSTRUCTIONS TO VISIBILITY.

ARZ001-003-010-029-020000-
NORTHWEST ARKANSAS

CITY           SKY/WX    TMP DP  RH WIND       PRES   REMARKS
FAYETTEVILLE   SUNNY     81  67  62 S13       29.80R
FORT SMITH     SUNNY     86  68  54 S8        29.76F HX  89
HARRISON       SUNNY     80  68  66 S12       29.82S
BENTONVILLE    MOSUNNY   82  66  57 S9G17     29.80S HX  85
ROGERS         MOSUNNY   82  66  58 S15       29.80S
SILOAM SPGS    SUNNY     82  64  54 S18G26    29.79S
HIGHFILL       SUNNY     81  66  60 S12       29.78S
SPRINGDALE     PTSUNNY   82  68  61 S14G25    29.81S HX  85
$$

ARZ004-005-016-020000-
NORTH CENTRAL ARKANSAS

CITY           SKY/WX    TMP DP  RH WIND       PRES   REMARKS
BATESVILLE     CLEAR     82  66  57 S9        29.83S HX  85
FLIPPIN        PTCLDY    84  64  51 S7        29.80F HX  86
MTN HOME       PTCLDY    84  66  54 S8        29.80S HX  86
$$

ARZ040-041-020000-
WEST CENTRAL ARKANSAS

CITY           SKY/WX    TMP DP  RH WIND       PRES   REMARKS
MENA           MOSUNNY   86  70  58 CALM      29.82S HX  90
MOUNT IDA      SUNNY     83  70  64 CALM      29.81R HX  87
$$

ARZ009-017-025-026-028-020000-
NORTHEAST ARKANSAS

CITY           SKY/WX    TMP DP  RH WIND       PRES   REMARKS
CORNING          N/A     82  66  57 S18       29.85R HX  85
JONESBORO      CLEAR     79  69  71 S12       29.85S
NEWPORT        PTCLDY    79  70  74 SE10      29.86S
WALNUT RIDGE   PTCLDY    81  63  54 S14G24    29.84R
BLYTHEVILLE    CLEAR     82  68  62 SW10      29.87S HX  85
$$

ARZ022-023-033-042-044-020000-
CENTRAL ARKANSAS

CITY           SKY/WX    TMP DP  RH WIND       PRES   REMARKS
LITTLE ROCK    PTCLDY    86  68  54 S9        29.82S HX  89
N LITTLE ROCK  PTCLDY    85  71  63 S10G16    29.82S HX  90
JACKSONVILLE   PTCLDY    85  72  64 SE7       29.83R HX  91
SEARCY         CLEAR     81  73  76 SE7       29.85R HX  86
HOT SPRINGS    MOSUNNY   85  69  58 S8        29.82R HX  89
RUSSELLVILLE   SUNNY     87  69  54 S5        29.80R HX  91
CLINTON        FAIR      86  72  62 S7        29.81S HX  92
$$

ARZ036-020000-
EAST ARKANSAS

CITY           SKY/WX    TMP DP  RH WIND       PRES   REMARKS
WEST MEMPHIS   PTCLDY    78  74  87 SE5       29.85F
$$

ARZ050-053-066-070-073-020000-
SOUTHWEST ARKANSAS

CITY           SKY/WX    TMP DP  RH WIND       PRES   REMARKS
ARKADELPHIA    FAIR      87  74  65 S3        29.81R HX  95
CAMDEN         SUNNY     88  66  48 S9        29.80S HX  90
TEXARKANA      MOSUNNY   88  68  51 S12       29.79S HX  91
EL DORADO      SUNNY     86  70  58 SE10      29.82S HX  90
DE QUEEN       SUNNY     86  71  60 S3        29.77S HX  91
$$

ARZ056-057-069-020000-
SOUTHEAST ARKANSAS

CITY           SKY/WX    TMP DP  RH WIND       PRES   REMARKS
PINE BLUFF     MOCLDY    82  73  74 CALM      29.82S HX  87
STUTTGART      CLOUDY   N/A N/A N/A E6        29.84S
MONTICELLO     CLEAR     88  66  48 S9        29.83R HX  90

$$




USA.gov is the U.S. government's official web portal to all federal, state and local government web resources and services.